Location: Helstorf
(52.5868°N, 9.5862°E)
Time: 20:28:47
(UTC+00:00)

Cosmos 2297 Rocket - Pass Details

Date: 15 May 2026
Orbit: 838 x 842 km, 71.0° (Epoch: 7 June)

Event Time Altitude Azimuth Distance (km) Brightness Sun altitude
Exits shadow 23:28:06 30° 204° (SSW) 1,462 2.9 -18.3°
Maximum altitude 23:31:00 83° 119° (ESE) 852 2.1 -18.3°
Drops below altitude 10° 23:36:41 10° 32° (NNE) 2,467 5.6 -18.2°
Sets 23:39:08 0° 32° (NNE) 3,407 6.5 -18.2°
